Cloud_Cover
50 61 84 100 100 100 100 100 100 100 100 89 24 14 15 100 100 100 100 100 100 88 97 100 88 81 5 0 0 0 0 0 0 0 0 0 0 0 0 0 0 0 0 0 0 0 0
100 100 100 100 100 100 97 100 100 100 37 12 0 0 0 21 100 100 100 100 100 53 96 78 64 47 3 0 0 0 0 0 0 0 0 0 0 0 0 0 0 0 0 0 0 0 0
100 100 100 100 100 97 49 52 31 15 4 0 0 0 0 0 5 97 100 64 33 12 28 10 5 8 0 0 0 0 0 0 0 0 0 0 0 0 0 0 0 0 0 0 0 0 0
99 100 100 100 100 100 77 34 9 1 0 0 0 0 0 0 0 2 29 10 5 5 5 5 4 0 0 0 0 0 0 0 0 0 0 0 0 0 0 0 0 0 0 0 0 0 0
100 100 100 100 100 100 40 11 5 5 1 0 0 0 0 0 0 0 0 2 4 5 0 0 0 0 0 0 0 0 0 0 0 0 0 0 0 0 0 0 0 0 0 0 0 0 0
100 100 100 100 98 98 24 10 5 5 5 4 0 0 0 0 0 0 0 0 0 0 1 4 5 5 2 0 0 0 0 0 0 0 0 0 0 0 0 0 0 0 4 0 0 0 0
100 100 100 100 88 100 98 11 5 5 5 5 5 3 0 0 0 0 1 0 4 5 5 12 5 5 2 0 5 0 0 0 0 0 0 0 0 1 0 0 0 0 0 0 0 0 0
100 100 100 100 100 100 100 85 59 24 5 5 5 5 5 2 2 1 0 0 4 8 6 47 72 8 5 5 0 5 0 0 0 0 0 0 0 0 0 0 0 0 0 0 0 0 0
100 100 100 100 100 64 100 100 100 74 62 27 5 5 5 5 5 5 5 4 5 5 25 98 52 27 21 5 5 4 4 0 0 0 0 0 0 0 0 0 0 0 0 2 0 0 0
100 100 100 100 100 92 78 100 100 100 99 71 79 11 5 5 14 5 5 5 9 5 44 73 25 42 28 23 5 5 5 5 4 0 0 0 0 0 0 1 0 0 0 0 0 0 0
41 99 100 100 100 100 94 100 100 100 100 99 100 41 66 5 5 5 5 5 5 24 4 21 86 90 7 16 31 47 30 6 5 5 0 0 0 0 1 4 0 0 5 2 0 0 0
25 11 86 100 100 100 100 96 100 100 100 100 75 82 44 5 5 5 5 5 5 3 1 5 5 5 36 62 24 6 12 13 32 58 20 14 1 0 0 0 0 0 0 4 2 0 0
98 100 19 100 100 100 100 100 81 100 100 100 100 100 100 81 14 4 5 5 1 0 1 3 5 0 0 0 4 9 5 5 4 8 50 19 5 2 2 0 4 4 3 3 0 0 0
100 99 90 44 100 100 100 100 100 48 96 100 100 100 100 100 100 98 92 14 5 5 5 5 5 5 5 5 5 5 2 5 5 8 0 0 1 5 5 32 71 40 89 96 82 6 0
100 100 66 67 67 100 100 100 100 100 100 100 100 100 100 100 100 100 100 100 99 82 12 5 6 17 100 71 5 27 5 11 75 8 13 4 0 0 0 0 0 0 5 49 79 5 45
100 93 90 56 14 94 100 100 100 100 100 100 100 100 100 100 100 100 100 100 100 100 100 100 100 92 100 100 83 7 5 88 100 74 37 85 89 5 14 8 5 5 5 5 42 88 70
100 100 100 83 49 95 100 100 100 100 100 100 100 100 89 100 100 100 100 100 100 85 100 100 100 100 100 100 96 100 98 100 98 69 52 28 55 5 5 10 7 20 4 49 33 52 100
100 100 100 92 94 99 97 100 100 100 100 100 100 100 100 100 100 100 100 100 100 85 69 94 100 100 100 90 73 14 8 7 65 33 9 14 5 36 100 95 18 5 84 91 99 80 100
98 100 100 100 100 100 100 100 100 100 100 100 100 100 100 100 100 100 100 100 100 100 71 84 94 89 63 79 19 73 92 82 90 6 5 4 2 6 0 9 93 93 82 100 100 100 90
100 100 100 100 99 100 100 100 100 100 100 100 100 100 100 100 100 100 100 100 100 100 79 82 95 100 100 93 75 18 55 22 8 5 5 5 35 3 0 41 7 19 5 28 85 99 66
100 100 100 100 100 100 100 100 100 100 100 100 100 100 100 100 100 100 100 100 100 100 100 100 92 100 100 60 71 84 56 6 5 5 29 37 39 47 5 10 20 68 61 5 46 94 87
95 100 100 100 100 100 100 100 100 100 100 100 100 100 100 100 100 100 100 100 100 100 100 100 100 100 100 100 100 100 46 56 40 5 5 5 5 0 4 0 0 84 5 5 23 82 100
92 98 100 100 100 100 100 100 100 100 100 100 100 100 100 100 100 100 100 100 100 100 100 100 100 100 98 91 65 13 6 5 4 2 3 5 5 5 4 6 29 65 98 69 78 69 94
100 100 100 100 100 100 100 100 100 100 100 100 100 100 100 100 100 100 100 100 100 100 100 100 97 83 62 19 5 4 3 3 5 13 22 63 80 92 84 100 92 93 74 32 5 83 66
100 100 100 100 100 100 100 100 100 100 100 100 100 99 67 56 64 100 100 100 100 100 100 100 76 31 27 43 10 12 62 84 91 100 100 100 100 98 74 92 74 99 99 71 78 57 97
100 100 100 100 100 100 100 100 100 100 33 74 56 29 94 100 100 100 100 100 100 96 100 100 100 99 96 96 40 99 81 97 100 100 100 100 100 86 100 100 96 78 97 98 99 48 100
100 100 100 100 100 100 100 100 92 100 100 100 100 100 100 100 100 94 73 70 48 45 88 20 5 5 3 5 44 99 100 63 65 43 99 78 96 100 80 91 86 83 65 76 86 76 45
100 100 100 100 100 100 100 100 100 100 100 100 100 100 100 100 18 5 5 2 5 5 64 3 2 3 5 27 37 76 88 94 74 99 99 43 81 62 64 87 84 72 90 95 73 20 12
100 100 100 100 100 100 100 100 100 100 100 100 99 66 59 56 15 5 5 5 5 5 25 5 5 5 5 54 44 96 76 97 88 95 60 78 94 100 96 92 95 75 51 14 53 93 90